| time (UTC) | temp C | wind direction | speed KPH | gust KPH | rain 1hr cm | rain 24hr cm | rain mn cm | humidity % | barometer mb |
| 20260903214552 | 16 | 171 | 6.4 | 20.9 | 0.00 | 0.76 | 0.18 | 69 | 1010.3 |
| 20260903213054 | 16 | 248 | 4.8 | 20.9 | 0.00 | 0.76 | 0.18 | 66 | 1010.3 |
| 20260903211555 | 16 | 185 | 9.7 | 20.9 | 0.00 | 0.76 | 0.18 | 66 | 1010.4 |
| 20260903210057 | 16 | 220 | 9.7 | 22.5 | 0.00 | 0.76 | 0.18 | 68 | 1010.3 |
| 20260903204553 | 16 | 155 | 1.6 | 20.9 | 0.00 | 1.09 | 0.18 | 70 | 1010.2 |
| 20260903203104 | 16 | 103 | 3.2 | 17.7 | 0.00 | 1.09 | 0.18 | 77 | 1010.2 |
| 20260903201554 | 16 | 171 | 4.8 | 24.1 | 0.00 | 1.09 | 0.18 | 74 | 1010.3 |
| 20260903200112 | 16 | 211 | 6.4 | 14.5 | 0.00 | 1.09 | 0.18 | 71 | 1010.4 |
| 20260903194557 | 16 | 169 | 4.8 | 20.9 | 0.00 | 1.27 | 0.18 | 73 | 1010.3 |
| 20260903193052 | 15 | 216 | 9.7 | 27.4 | 0.00 | 1.27 | 0.18 | 77 | 1010.6 |
| 20260903191554 | 16 | 167 | 4.8 | 19.3 | 0.00 | 1.27 | 0.18 | 77 | 1010.4 |
| 20260903190048 | 15 | 252 | 3.2 | 11.3 | 0.00 | 1.27 | 0.18 | 80 | 1010.4 |
| 20260903184553 | 16 | 180 | 4.8 | 11.3 | 0.00 | 1.47 | 0.18 | 73 | 1010.4 |
| 20260903183050 | 16 | 92 | 3.2 | 6.4 | 0.00 | 1.47 | 0.18 | 79 | 1010.2 |
| 20260903181546 | 16 | 0 | 0.0 | 4.8 | 0.00 | 1.47 | 0.18 | 77 | 1010.2 |
| 20260903180053 | 15 | 90 | 3.2 | 9.7 | 0.00 | 1.47 | 0.18 | 77 | 1010.3 |
| 20260903174550 | 15 | 110 | 1.6 | 4.8 | 0.00 | 1.47 | 0.18 | 81 | 1010.3 |
| 20260903173056 | 14 | 0 | 0.0 | 0.0 | 0.00 | 1.47 | 0.18 | 89 | 1010.4 |
| 20260903171551 | 14 | 0 | 0.0 | 0.0 | 0.00 | 1.47 | 0.18 | 89 | 1010.6 |
| 20260903170059 | 13 | 0 | 0.0 | 1.6 | 0.00 | 1.47 | 0.18 | 87 | 1010.6 |
| 20260903164549 | 12 | 0 | 0.0 | 0.0 | 0.03 | 1.47 | 0.18 | 89 | 1010.6 |
| 20260903163054 | 12 | 0 | 0.0 | 0.0 | 0.03 | 1.47 | 0.18 | 90 | 1010.6 |
| 20260903161557 | 12 | 0 | 0.0 | 4.8 | 0.03 | 1.47 | 0.18 | 89 | 1010.8 |
| 20260903160051 | 12 | 0 | 0.0 | 0.0 | 0.05 | 1.47 | 0.18 | 90 | 1010.7 |
| 20260903154551 | 12 | 0 | 1.6 | 6.4 | 0.05 | 1.47 | 0.15 | 89 | 1010.7 |
| 20260903153047 | 12 | 133 | 0.0 | 3.2 | 0.08 | 1.47 | 0.15 | 89 | 1010.8 |
| 20260903151558 | 12 | 0 | 0.0 | 0.0 | 0.08 | 1.47 | 0.15 | 89 | 1010.8 |
| 20260903150108 | 12 | 163 | 0.0 | 3.2 | 0.05 | 1.45 | 0.13 | 89 | 1010.6 |
| 20260903144556 | 12 | 168 | 0.0 | 3.2 | 0.03 | 1.42 | 0.10 | 88 | 1010.5 |
| 20260903143100 | 12 | 0 | 0.0 | 1.6 | 0.00 | 1.40 | 0.08 | 87 | 1010.6 |
| 20260903141558 | 12 | 182 | 0.0 | 4.8 | 0.00 | 1.40 | 0.08 | 87 | 1010.3 |
| 20260903140057 | 12 | 163 | 1.6 | 9.7 | 0.00 | 1.40 | 0.08 | 86 | 1010.2 |
| 20260903134608 | 12 | 177 | 1.6 | 8.0 | 0.00 | 1.40 | 0.08 | 86 | 1009.9 |
| 20260903133049 | 12 | 136 | 1.6 | 8.0 | 0.00 | 1.40 | 0.08 | 87 | 1010.0 |
| 20260903131556 | 12 | 173 | 1.6 | 8.0 | 0.00 | 1.40 | 0.08 | 88 | 1009.9 |
| 20260903130101 | 11 | 138 | 1.6 | 6.4 | 0.00 | 1.40 | 0.08 | 88 | 1009.9 |
| 20260903124559 | 11 | 180 | 3.2 | 8.0 | 0.00 | 1.40 | 0.08 | 89 | 1010.1 |
| 20260903123058 | 11 | 155 | 1.6 | 3.2 | 0.00 | 1.40 | 0.08 | 89 | 1009.9 |
| 20260903121555 | 11 | 0 | 0.0 | 4.8 | 0.00 | 1.40 | 0.08 | 89 | 1010.2 |
| 20260903120109 | 11 | 0 | 0.0 | 0.0 | 0.00 | 1.40 | 0.08 | 89 | 1010.3 |
| 20260903114555 | 11 | 0 | 0.0 | 0.0 | 0.00 | 1.40 | 0.08 | 89 | 1010.3 |
| 20260903113056 | 12 | 0 | 0.0 | 0.0 | 0.00 | 1.40 | 0.08 | 89 | 1010.2 |
| 20260903111552 | 12 | 0 | 0.0 | 0.0 | 0.00 | 1.40 | 0.08 | 88 | 1010.3 |
| 20260903110058 | 12 | 0 | 0.0 | 0.0 | 0.00 | 1.40 | 0.08 | 88 | 1010.2 |
| 20260903104609 | 12 | 0 | 0.0 | 0.0 | 0.03 | 1.40 | 0.08 | 88 | 1010.2 |
| 20260903103058 | 12 | 0 | 0.0 | 6.4 | 0.03 | 1.40 | 0.08 | 89 | 1010.3 |
| 20260903101554 | 12 | 158 | 0.0 | 6.4 | 0.03 | 1.40 | 0.08 | 89 | 1010.0 |
| 20260903100046 | 12 | 173 | 0.0 | 4.8 | 0.03 | 1.40 | 0.08 | 89 | 1010.0 |
| 20260903094601 | 12 | 0 | 0.0 | 0.0 | 0.03 | 1.37 | 0.05 | 90 | 1010.0 |
| 20260903093059 | 12 | 0 | 0.0 | 0.0 | 0.03 | 1.37 | 0.05 | 90 | 1010.0 |
| 20260903091616 | 12 | 0 | 0.0 | 0.0 | 0.03 | 1.37 | 0.05 | 90 | 1010.2 |
| 20260903090059 | 12 | 0 | 0.0 | 0.0 | 0.03 | 1.37 | 0.05 | 90 | 1010.3 |
| 20260903084554 | 12 | 0 | 0.0 | 0.0 | 0.03 | 1.32 | 0.03 | 90 | 1010.2 |
| 20260903083052 | 12 | 0 | 0.0 | 0.0 | 0.03 | 1.32 | 0.03 | 90 | 1010.3 |
| 20260903081549 | 12 | 0 | 0.0 | 3.2 | 0.03 | 1.32 | 0.03 | 89 | 1010.3 |
| 20260903080055 | 12 | 168 | 3.2 | 8.0 | 0.03 | 1.32 | 0.03 | 89 | 1010.3 |
| 20260903074555 | 12 | 165 | 1.6 | 9.7 | 0.00 | 1.32 | 0.00 | 88 | 1010.3 |
| 20260903073051 | 12 | 134 | 1.6 | 11.3 | 0.00 | 1.32 | 0.00 | 88 | 1010.3 |
| 20260903071603 | 12 | 152 | 3.2 | 16.1 | 0.00 | 1.32 | 0.00 | 88 | 1010.3 |
| 20260903070053 | 12 | 184 | 6.4 | 17.7 | 0.00 | 1.32 | 0.00 | 88 | 1010.3 |
| 20260903064552 | 12 | 207 | 8.0 | 20.9 | 0.00 | 1.32 | 1.32 | 89 | 1010.3 |
| 20260903063105 | 12 | 0 | 0.0 | 0.0 | 0.00 | 1.32 | 1.32 | 90 | 1010.3 |
| 20260903061558 | 12 | 0 | 0.0 | 0.0 | 0.00 | 1.32 | 1.32 | 90 | 1010.1 |
| 20260903060059 | 12 | 0 | 0.0 | 0.0 | 0.00 | 1.32 | 1.32 | 90 | 1010.0 |
| 20260903054553 | 12 | 0 | 0.0 | 6.4 | 0.00 | 1.32 | 1.32 | 90 | 1010.2 |
| 20260903053110 | 13 | 0 | 0.0 | 3.2 | 0.00 | 1.32 | 1.32 | 90 | 1010.3 |
| 20260903051600 | 13 | 0 | 0.0 | 4.8 | 0.00 | 1.32 | 1.32 | 89 | 1010.2 |
| 20260903044602 | 13 | 155 | 1.6 | 6.4 | 0.00 | 1.32 | 1.32 | 88 | 1009.9 |
| 20260903043108 | 13 | 161 | 1.6 | 8.0 | 0.00 | 1.32 | 1.32 | 88 | 1009.9 |
| 20260903041555 | 13 | 152 | 0.0 | 8.0 | 0.00 | 1.32 | 1.32 | 89 | 1009.7 |
| 20260903040053 | 13 | 148 | 3.2 | 9.7 | 0.00 | 1.32 | 1.32 | 90 | 1009.6 |
| 20260903034557 | 13 | 171 | 3.2 | 9.7 | 0.00 | 1.32 | 1.32 | 90 | 1009.4 |
| 20260903033055 | 13 | 163 | 3.2 | 9.7 | 0.00 | 1.32 | 1.32 | 90 | 1009.4 |
| 20260903031606 | 13 | 158 | 3.2 | 8.0 | 0.00 | 1.32 | 1.32 | 90 | 1009.3 |
| 20260903030049 | 13 | 0 | 1.6 | 4.8 | 0.00 | 1.32 | 1.32 | 90 | 1008.9 |
| 20260903024548 | 13 | 168 | 1.6 | 6.4 | 0.00 | 1.32 | 1.32 | 91 | 1008.8 |
| 20260903023054 | 14 | 149 | 1.6 | 6.4 | 0.00 | 1.32 | 1.32 | 91 | 1008.7 |
| 20260903021555 | 14 | 163 | 1.6 | 9.7 | 0.03 | 1.32 | 1.32 | 91 | 1008.4 |
| 20260903020052 | 14 | 157 | 0.0 | 6.4 | 0.03 | 1.32 | 1.32 | 91 | 1008.4 |
| 20260903014603 | 14 | 151 | 3.2 | 6.4 | 0.03 | 1.32 | 1.32 | 91 | 1008.3 |
| 20260903013052 | 14 | 0 | 0.0 | 3.2 | 0.05 | 1.32 | 1.32 | 91 | 1008.2 |
| 20260903011607 | 14 | 0 | 0.0 | 11.3 | 0.03 | 1.30 | 1.30 | 91 | 1008.2 |
| 20260903010059 | 14 | 181 | 3.2 | 9.7 | 0.10 | 1.30 | 1.30 | 92 | 1007.9 |
| 20260903004556 | 14 | 173 | 3.2 | 11.3 | 0.43 | 1.30 | 1.30 | 92 | 1007.7 |
| 20260903003054 | 14 | 163 | 1.6 | 6.4 | 0.48 | 1.27 | 1.27 | 92 | 1007.8 |
| 20260903001552 | 14 | 0 | 0.0 | 11.3 | 0.51 | 1.27 | 1.27 | 91 | 1007.5 |
| 20260903000046 | 15 | 214 | 0.0 | 6.4 | 0.41 | 1.17 | 1.17 | 90 | 1007.8 |
| 20260902234558 | 15 | 248 | 1.6 | 17.7 | 0.08 | 0.84 | 0.84 | 89 | 1007.7 |
| 20260902233057 | 15 | 227 | 4.8 | 17.7 | 0.03 | 0.79 | 0.79 | 87 | 1007.5 |
| 20260902231554 | 15 | 153 | 6.4 | 19.3 | 0.00 | 0.76 | 0.76 | 85 | 1007.4 |
| 20260902230057 | 15 | 187 | 4.8 | 9.7 | 0.00 | 0.76 | 0.76 | 88 | 1007.4 |
| 20260902224554 | 15 | 182 | 0.0 | 4.8 | 0.03 | 0.76 | 0.76 | 91 | 1007.2 |
| 20260902223100 | 15 | 0 | 1.6 | 4.8 | 0.03 | 0.76 | 0.76 | 91 | 1007.2 |
| 20260902221549 | 15 | 0 | 0.0 | 0.0 | 0.03 | 0.76 | 0.76 | 91 | 1007.3 |
| 20260902220104 | 15 | 0 | 0.0 | 0.0 | 0.03 | 0.76 | 0.76 | 90 | 1007.1 |